Location: Cowley
(49.5667°N, 114.0667°W)
Time: 10:15:01
(UTC+00:00)

Envisat - Pass Details

Date: 07 December 2021
Orbit: 764 x 766 km, 98.2° (Epoch: 24 January)

Event Time Altitude Azimuth Distance (km) Brightness Sun altitude
Rises 12:00:01 0° 20° (NNE) 3,246 6.5 -31.1°
Reaches altitude 10° 12:02:31 10° 29° (NNE) 2,315 5.8 -30.7°
Maximum altitude 12:07:12 36° 96° (E) 1,208 4.5 -30.0°
Drops below altitude 10° 12:11:51 10° 162° (SSE) 2,297 5.7 -29.2°
Sets 12:14:19 0° 171° (S) 3,218 6.4 -28.8°
